Location: DARK SKY Beskydy - Park tmavé oblohy, www.darkskybeskydy.cz
(49.4926°N, 18.5016°E)
Time: 09:38:27
(UTC+02:00)

Envisat - Pass Details

Date: 22 June 2024
Orbit: 762 x 764 km, 98.3° (Epoch: 13 July)

Event Time Altitude Azimuth Distance (km) Brightness Sun altitude
Rises 02:58:57 0° 25° (NNE) 3,237 8.4 -11.5°
Reaches altitude 10° 03:01:48 10° 41° (NE) 2,305 7.0 -11.2°
Maximum altitude 03:05:40 22° 91° (E) 1,643 5.1 -10.9°
Drops below altitude 10° 03:09:30 10° 141° (SE) 2,291 5.3 -10.6°
Sets 03:12:18 0° 156° (SSE) 3,212 5.9 -10.3°
